| time (UTC) | temp F | wind direction | speed knots | gust knots | rain 1hr in | rain 24hr in | rain mn in | humidity % | barometer mb |
| 20260506070104 | 37 | 0 | 0.9 | 2.6 | 0.00 | 0.00 | 0.00 | 74 | 1006.0 |
| 20260506062104 | 35 | 0 | 2.6 | 6.1 | 0.00 | 0.00 | 0.00 | 78 | 1005.6 |
| 20260506061604 | 35 | 0 | 3.5 | 7.8 | 0.00 | 0.00 | 0.00 | 78 | 1005.6 |
| 20260506061104 | 35 | 0 | 2.6 | 5.2 | 0.00 | 0.00 | 0.00 | 78 | 1005.6 |
| 20260506060604 | 35 | 0 | 1.7 | 7.0 | 0.00 | 0.00 | 0.00 | 78 | 1005.6 |
| 20260506060104 | 35 | 0 | 2.6 | 4.3 | 0.00 | 0.00 | 0.00 | 79 | 1005.5 |
| 20260506051104 | 32 | 0 | 1.7 | 6.1 | 0.00 | 0.00 | 0.00 | 84 | 1005.1 |
| 20260506050603 | 32 | 0 | 1.7 | 7.0 | 0.00 | 0.00 | 0.00 | 84 | 1005.1 |
| 20260506050104 | 32 | 0 | 2.6 | 5.2 | 0.00 | 0.00 | 0.00 | 84 | 1005.1 |
| 20260506045104 | 32 | 0 | 2.6 | 6.1 | 0.00 | 0.00 | 0.00 | 83 | 1005.0 |
| 20260506044604 | 32 | 0 | 3.5 | 6.1 | 0.00 | 0.00 | 0.00 | 83 | 1004.9 |
| 20260506044104 | 32 | 0 | 2.6 | 5.2 | 0.00 | 0.00 | 0.00 | 83 | 1004.8 |
| 20260506043604 | 32 | 0 | 2.6 | 4.3 | 0.00 | 0.00 | 0.00 | 83 | 1004.8 |
| 20260506043103 | 32 | 0 | 1.7 | 4.3 | 0.00 | 0.00 | 0.00 | 83 | 1004.8 |
| 20260506042604 | 32 | 0 | 2.6 | 5.2 | 0.00 | 0.00 | 0.00 | 82 | 1004.7 |
| 20260506042104 | 32 | 0 | 2.6 | 5.2 | 0.00 | 0.00 | 0.00 | 82 | 1004.7 |
| 20260506041604 | 32 | 0 | 1.7 | 5.2 | 0.00 | 0.00 | 0.00 | 81 | 1004.7 |
| 20260506041104 | 32 | 0 | 2.6 | 6.1 | 0.00 | 0.00 | 0.00 | 80 | 1004.6 |
| 20260506040605 | 32 | 0 | 1.7 | 4.3 | 0.00 | 0.00 | 0.00 | 80 | 1004.6 |
| 20260506040104 | 32 | 0 | 1.7 | 5.2 | 0.00 | 0.00 | 0.00 | 79 | 1004.6 |
| 20260506035603 | 32 | 0 | 2.6 | 4.3 | 0.00 | 0.00 | 0.00 | 79 | 1004.6 |
| 20260506035103 | 32 | 0 | 2.6 | 5.2 | 0.00 | 0.00 | 0.00 | 79 | 1004.6 |
| 20260506034604 | 32 | 0 | 1.7 | 2.6 | 0.00 | 0.00 | 0.00 | 80 | 1004.5 |
| 20260506034103 | 31 | 0 | 1.7 | 2.6 | 0.00 | 0.00 | 0.00 | 81 | 1004.4 |
| 20260506033603 | 31 | 0 | 1.7 | 4.3 | 0.00 | 0.00 | 0.00 | 80 | 1004.4 |
| 20260506033103 | 31 | 0 | 0.9 | 2.6 | 0.00 | 0.00 | 0.00 | 81 | 1004.3 |
| 20260506032604 | 31 | 0 | 0.9 | 2.6 | 0.00 | 0.00 | 0.00 | 81 | 1004.3 |
| 20260506032104 | 31 | 0 | 0.9 | 2.6 | 0.00 | 0.00 | 0.00 | 82 | 1004.3 |
| 20260506031604 | 30 | 0 | 0.0 | 0.9 | 0.00 | 0.00 | 0.00 | 82 | 1004.3 |
| 20260506031104 | 30 | 0 | 0.0 | 0.9 | 0.00 | 0.00 | 0.00 | 82 | 1004.3 |
| 20260506030603 | 30 | 0 | 0.0 | 1.7 | 0.00 | 0.00 | 0.00 | 82 | 1004.3 |
| 20260506030104 | 30 | 0 | 0.0 | 1.7 | 0.00 | 0.00 | 0.00 | 83 | 1004.3 |
| 20260506025603 | 30 | 0 | 0.9 | 1.7 | 0.00 | 0.00 | 0.00 | 83 | 1004.2 |
| 20260506025104 | 29 | 0 | 0.9 | 2.6 | 0.00 | 0.00 | 0.00 | 83 | 1004.2 |
| 20260506024604 | 29 | 0 | 0.0 | 1.7 | 0.00 | 0.00 | 0.00 | 83 | 1004.2 |
| 20260506024104 | 29 | 0 | 0.0 | 0.9 | 0.00 | 0.00 | 0.00 | 83 | 1004.1 |
| 20260506023603 | 29 | 0 | 0.0 | 2.6 | 0.00 | 0.00 | 0.00 | 83 | 1004.1 |
| 20260506023103 | 29 | 0 | 0.0 | 1.7 | 0.00 | 0.00 | 0.00 | 83 | 1004.0 |
| 20260506022603 | 29 | 0 | 0.9 | 1.7 | 0.00 | 0.00 | 0.00 | 83 | 1004.0 |
| 20260506022103 | 29 | 0 | 0.9 | 2.6 | 0.00 | 0.00 | 0.00 | 83 | 1004.0 |
| 20260506021604 | 29 | 0 | 0.9 | 2.6 | 0.00 | 0.00 | 0.00 | 84 | 1004.0 |
| 20260506021104 | 29 | 0 | 0.0 | 0.9 | 0.00 | 0.00 | 0.00 | 84 | 1003.9 |
| 20260506020604 | 29 | 0 | 0.9 | 2.6 | 0.00 | 0.00 | 0.00 | 84 | 1003.9 |
| 20260506020104 | 28 | 0 | 1.7 | 4.3 | 0.00 | 0.00 | 0.00 | 85 | 1003.9 |
| 20260506015603 | 28 | 0 | 0.9 | 1.7 | 0.00 | 0.00 | 0.00 | 85 | 1004.0 |
| 20260506015103 | 27 | 0 | 0.0 | 1.7 | 0.00 | 0.00 | 0.00 | 84 | 1003.9 |
| 20260506014604 | 27 | 0 | 0.9 | 2.6 | 0.00 | 0.00 | 0.00 | 84 | 1003.9 |
| 20260506014104 | 27 | 0 | 0.0 | 1.7 | 0.00 | 0.00 | 0.00 | 83 | 1004.0 |
| 20260506013604 | 28 | 0 | 0.9 | 1.7 | 0.00 | 0.00 | 0.00 | 82 | 1003.9 |
| 20260506013104 | 28 | 0 | 0.0 | 0.9 | 0.00 | 0.00 | 0.00 | 82 | 1003.8 |
| 20260506012604 | 28 | 0 | 0.0 | 0.0 | 0.00 | 0.00 | 0.00 | 82 | 1003.7 |
| 20260506012104 | 28 | 0 | 0.9 | 1.7 | 0.00 | 0.00 | 0.00 | 82 | 1003.7 |
| 20260506011604 | 28 | 0 | 0.9 | 1.7 | 0.00 | 0.00 | 0.00 | 82 | 1003.7 |
| 20260506011103 | 28 | 0 | 0.0 | 0.0 | 0.00 | 0.00 | 0.00 | 82 | 1003.7 |
| 20260506010604 | 28 | 0 | 0.0 | 0.9 | 0.00 | 0.00 | 0.00 | 82 | 1003.7 |
| 20260506010103 | 28 | 0 | 0.0 | 0.0 | 0.00 | 0.00 | 0.00 | 81 | 1003.7 |
| 20260506005603 | 29 | 0 | 0.0 | 0.0 | 0.00 | 0.00 | 0.00 | 80 | 1003.6 |
| 20260506005103 | 29 | 0 | 0.0 | 1.7 | 0.00 | 0.00 | 0.00 | 80 | 1003.5 |
| 20260506004604 | 29 | 0 | 0.0 | 1.7 | 0.00 | 0.00 | 0.00 | 79 | 1003.5 |
| 20260506004103 | 29 | 0 | 0.9 | 2.6 | 0.00 | 0.00 | 0.00 | 80 | 1003.5 |
| 20260506003604 | 29 | 0 | 0.9 | 1.7 | 0.00 | 0.00 | 0.00 | 79 | 1003.6 |
| 20260506003104 | 29 | 0 | 1.7 | 5.2 | 0.00 | 0.00 | 0.00 | 80 | 1003.6 |
| 20260506002604 | 29 | 0 | 1.7 | 2.6 | 0.00 | 0.00 | 0.00 | 79 | 1003.5 |
| 20260506002104 | 29 | 0 | 1.7 | 2.6 | 0.00 | 0.00 | 0.00 | 79 | 1003.6 |
| 20260506001603 | 29 | 0 | 0.9 | 2.6 | 0.00 | 0.00 | 0.00 | 80 | 1003.5 |
| 20260506001103 | 29 | 0 | 1.7 | 4.3 | 0.00 | 0.00 | 0.00 | 80 | 1003.5 |
| 20260506000604 | 29 | 0 | 0.9 | 4.3 | 0.00 | 0.00 | 0.00 | 80 | 1003.5 |
| 20260506000103 | 29 | 0 | 1.7 | 4.3 | 0.00 | 0.00 | 0.00 | 80 | 1003.5 |
| 20260505235603 | 29 | 0 | 1.7 | 2.6 | 0.00 | 0.00 | 0.00 | 80 | 1003.5 |
| 20260505235103 | 29 | 0 | 1.7 | 2.6 | 0.00 | 0.00 | 0.00 | 79 | 1003.5 |
| 20260505234604 | 29 | 0 | 1.7 | 4.3 | 0.00 | 0.00 | 0.00 | 79 | 1003.5 |
| 20260505234103 | 29 | 0 | 1.7 | 5.2 | 0.00 | 0.00 | 0.00 | 79 | 1003.6 |
| 20260505233604 | 29 | 0 | 2.6 | 5.2 | 0.00 | 0.00 | 0.00 | 79 | 1003.6 |
| 20260505233104 | 29 | 0 | 1.7 | 2.6 | 0.00 | 0.00 | 0.00 | 80 | 1003.6 |
| 20260505232604 | 29 | 0 | 1.7 | 5.2 | 0.00 | 0.00 | 0.00 | 79 | 1003.6 |
| 20260505232104 | 29 | 0 | 0.9 | 2.6 | 0.00 | 0.00 | 0.00 | 79 | 1003.6 |
| 20260505231604 | 29 | 0 | 1.7 | 5.2 | 0.00 | 0.00 | 0.00 | 79 | 1003.6 |
| 20260505231104 | 29 | 0 | 1.7 | 4.3 | 0.00 | 0.00 | 0.00 | 78 | 1003.6 |
| 20260505230603 | 29 | 0 | 1.7 | 2.6 | 0.00 | 0.00 | 0.00 | 78 | 1003.6 |
| 20260505230104 | 29 | 0 | 1.7 | 5.2 | 0.00 | 0.00 | 0.00 | 78 | 1003.6 |
| 20260505225604 | 29 | 0 | 1.7 | 4.3 | 0.00 | 0.00 | 0.00 | 78 | 1003.6 |
| 20260505225104 | 29 | 0 | 0.9 | 2.6 | 0.00 | 0.00 | 0.00 | 78 | 1003.6 |
| 20260505224603 | 29 | 0 | 0.9 | 2.6 | 0.00 | 0.00 | 0.00 | 77 | 1003.6 |
| 20260505224104 | 29 | 0 | 2.6 | 10.4 | 0.00 | 0.00 | 0.00 | 77 | 1003.6 |
| 20260505223604 | 29 | 0 | 1.7 | 4.3 | 0.00 | 0.00 | 0.00 | 77 | 1003.6 |
| 20260505223104 | 29 | 0 | 1.7 | 4.3 | 0.00 | 0.00 | 0.00 | 77 | 1003.6 |
| 20260505222604 | 29 | 0 | 1.7 | 4.3 | 0.00 | 0.00 | 0.00 | 77 | 1003.7 |
| 20260505222104 | 29 | 0 | 2.6 | 5.2 | 0.00 | 0.00 | 0.00 | 77 | 1003.6 |
| 20260505221604 | 29 | 0 | 3.5 | 6.1 | 0.00 | 0.00 | 0.00 | 77 | 1003.6 |
| 20260505221108 | 30 | 0 | 1.7 | 6.1 | 0.00 | 0.00 | 0.00 | 77 | 1003.5 |
| 20260505220604 | 30 | 0 | 2.6 | 5.2 | 0.00 | 0.00 | 0.00 | 76 | 1003.5 |
| 20260505220104 | 30 | 0 | 2.6 | 4.3 | 0.00 | 0.00 | 0.00 | 76 | 1003.5 |
| 20260505215603 | 30 | 0 | 1.7 | 4.3 | 0.00 | 0.00 | 0.00 | 76 | 1003.5 |
| 20260505215104 | 30 | 0 | 2.6 | 5.2 | 0.00 | 0.00 | 0.00 | 75 | 1003.5 |
| 20260505214604 | 30 | 0 | 1.7 | 2.6 | 0.00 | 0.00 | 0.00 | 75 | 1003.5 |
| 20260505214103 | 30 | 0 | 2.6 | 7.0 | 0.00 | 0.00 | 0.00 | 75 | 1003.5 |
| 20260505213604 | 30 | 0 | 3.5 | 7.0 | 0.00 | 0.00 | 0.00 | 75 | 1003.5 |
| 20260505213104 | 30 | 0 | 2.6 | 7.0 | 0.00 | 0.00 | 0.00 | 74 | 1003.5 |
| 20260505212604 | 30 | 0 | 3.5 | 6.1 | 0.00 | 0.00 | 0.00 | 74 | 1003.5 |
| 20260505212104 | 30 | 0 | 2.6 | 7.0 | 0.00 | 0.00 | 0.00 | 73 | 1003.5 |
| 20260505211604 | 30 | 0 | 2.6 | 5.2 | 0.00 | 0.00 | 0.00 | 73 | 1003.5 |
| 20260505211104 | 30 | 0 | 3.5 | 7.0 | 0.00 | 0.00 | 0.00 | 72 | 1003.5 |
| 20260505210604 | 31 | 0 | 1.7 | 5.2 | 0.00 | 0.00 | 0.00 | 72 | 1003.4 |
| 20260505210104 | 31 | 0 | 2.6 | 5.2 | 0.00 | 0.00 | 0.00 | 71 | 1003.3 |
| 20260505205604 | 31 | 0 | 3.5 | 7.0 | 0.00 | 0.00 | 0.00 | 71 | 1003.3 |
| 20260505205104 | 31 | 0 | 2.6 | 6.1 | 0.00 | 0.00 | 0.00 | 71 | 1003.3 |
| 20260505204603 | 31 | 0 | 2.6 | 7.0 | 0.00 | 0.00 | 0.00 | 71 | 1003.2 |
| 20260505204104 | 32 | 0 | 2.6 | 6.1 | 0.00 | 0.00 | 0.00 | 70 | 1003.2 |
| 20260505203604 | 32 | 0 | 3.5 | 5.2 | 0.00 | 0.00 | 0.00 | 70 | 1003.3 |
| 20260505203104 | 32 | 0 | 2.6 | 6.1 | 0.00 | 0.00 | 0.00 | 69 | 1003.2 |
| 20260505202603 | 32 | 0 | 2.6 | 4.3 | 0.00 | 0.00 | 0.00 | 69 | 1003.3 |
| 20260505202104 | 33 | 0 | 2.6 | 5.2 | 0.00 | 0.00 | 0.00 | 68 | 1003.2 |
| 20260505201604 | 33 | 0 | 2.6 | 5.2 | 0.00 | 0.00 | 0.00 | 67 | 1003.2 |
| 20260505201104 | 33 | 0 | 2.6 | 5.2 | 0.00 | 0.00 | 0.00 | 67 | 1003.2 |
| 20260505200603 | 33 | 0 | 1.7 | 7.0 | 0.00 | 0.00 | 0.00 | 67 | 1003.1 |
| 20260505200104 | 34 | 0 | 4.3 | 7.8 | 0.00 | 0.00 | 0.00 | 66 | 1003.1 |
| 20260505195603 | 34 | 0 | 4.3 | 7.0 | 0.00 | 0.00 | 0.00 | 66 | 1003.1 |
| 20260505195104 | 34 | 0 | 2.6 | 6.1 | 0.00 | 0.00 | 0.00 | 65 | 1003.1 |
| 20260505194605 | 34 | 0 | 4.3 | 7.0 | 0.00 | 0.00 | 0.00 | 64 | 1003.1 |
| 20260505194103 | 34 | 0 | 4.3 | 7.8 | 0.00 | 0.00 | 0.00 | 64 | 1003.0 |
| 20260505193604 | 35 | 0 | 2.6 | 5.2 | 0.00 | 0.00 | 0.00 | 63 | 1002.9 |
| 20260505193105 | 35 | 0 | 1.7 | 5.2 | 0.00 | 0.00 | 0.00 | 63 | 1002.9 |
| 20260505192603 | 35 | 0 | 2.6 | 7.8 | 0.00 | 0.00 | 0.00 | 63 | 1002.9 |
| 20260505192103 | 35 | 0 | 1.7 | 4.3 | 0.00 | 0.00 | 0.00 | 62 | 1002.9 |
| 20260505191603 | 35 | 0 | 1.7 | 5.2 | 0.00 | 0.00 | 0.00 | 62 | 1002.9 |
| 20260505191104 | 35 | 0 | 1.7 | 4.3 | 0.00 | 0.00 | 0.00 | 63 | 1002.9 |
| 20260505190603 | 35 | 0 | 2.6 | 6.1 | 0.00 | 0.00 | 0.00 | 63 | 1002.9 |
| 20260505190104 | 35 | 0 | 2.6 | 6.1 | 0.00 | 0.00 | 0.00 | 63 | 1002.8 |
| 20260505185603 | 35 | 0 | 2.6 | 7.8 | 0.00 | 0.00 | 0.00 | 63 | 1002.8 |
| 20260505185103 | 36 | 0 | 2.6 | 5.2 | 0.00 | 0.00 | 0.00 | 63 | 1002.8 |
| 20260505184603 | 36 | 0 | 1.7 | 5.2 | 0.00 | 0.00 | 0.00 | 61 | 1002.7 |
| 20260505184104 | 36 | 0 | 1.7 | 5.2 | 0.00 | 0.00 | 0.00 | 61 | 1002.7 |
| 20260505183604 | 36 | 0 | 1.7 | 6.1 | 0.00 | 0.00 | 0.00 | 61 | 1002.7 |
| 20260505183104 | 36 | 0 | 2.6 | 5.2 | 0.00 | 0.00 | 0.00 | 61 | 1002.6 |
| 20260505182604 | 36 | 0 | 0.9 | 7.8 | 0.00 | 0.00 | 0.00 | 60 | 1002.6 |
| 20260505182104 | 37 | 0 | 1.7 | 5.2 | 0.00 | 0.00 | 0.00 | 59 | 1002.6 |
| 20260505181604 | 37 | 0 | 0.9 | 2.6 | 0.00 | 0.00 | 0.00 | 60 | 1002.6 |
| 20260505181104 | 37 | 0 | 1.7 | 4.3 | 0.00 | 0.00 | 0.00 | 59 | 1002.6 |
| 20260505180604 | 37 | 0 | 1.7 | 5.2 | 0.00 | 0.00 | 0.00 | 60 | 1002.5 |
| 20260505180104 | 37 | 0 | 0.9 | 2.6 | 0.00 | 0.00 | 0.00 | 60 | 1002.5 |
| 20260505175604 | 37 | 0 | 1.7 | 4.3 | 0.00 | 0.00 | 0.00 | 59 | 1002.5 |
| 20260505175104 | 37 | 0 | 1.7 | 6.1 | 0.00 | 0.00 | 0.00 | 59 | 1002.4 |
| 20260505174603 | 37 | 350 | 1.7 | 2.6 | 0.00 | 0.00 | 0.00 | 60 | 1002.4 |
| 20260505174104 | 37 | 345 | 1.7 | 6.1 | 0.00 | 0.00 | 0.00 | 61 | 1002.3 |
| 20260505173603 | 37 | 324 | 1.7 | 4.3 | 0.00 | 0.00 | 0.00 | 61 | 1002.3 |
| 20260505173103 | 37 | 0 | 0.9 | 2.6 | 0.00 | 0.00 | 0.00 | 63 | 1002.3 |
| 20260505172604 | 37 | 326 | 0.9 | 2.6 | 0.00 | 0.00 | 0.00 | 62 | 1002.3 |
| 20260505172104 | 37 | 0 | 1.7 | 5.2 | 0.00 | 0.00 | 0.00 | 61 | 1002.3 |
| 20260505171604 | 38 | 0 | 0.9 | 2.6 | 0.00 | 0.00 | 0.00 | 62 | 1002.3 |
| 20260505171103 | 38 | 337 | 2.6 | 7.0 | 0.00 | 0.00 | 0.00 | 62 | 1002.3 |
| 20260505170604 | 38 | 358 | 4.3 | 8.7 | 0.00 | 0.00 | 0.00 | 61 | 1002.2 |
| 20260505170104 | 38 | 0 | 3.5 | 8.7 | 0.00 | 0.00 | 0.00 | 60 | 1002.2 |
| 20260505165604 | 38 | 0 | 0.9 | 4.3 | 0.00 | 0.00 | 0.00 | 59 | 1002.1 |
| 20260505165104 | 38 | 0 | 2.6 | 10.4 | 0.00 | 0.00 | 0.00 | 58 | 1002.1 |
| 20260505164604 | 38 | 0 | 0.9 | 4.3 | 0.00 | 0.00 | 0.00 | 56 | 1002.1 |
| 20260505164104 | 38 | 0 | 1.7 | 8.7 | 0.00 | 0.00 | 0.00 | 55 | 1002.1 |
| 20260505163604 | 39 | 328 | 2.6 | 10.4 | 0.00 | 0.00 | 0.00 | 53 | 1002.0 |
| 20260505163103 | 39 | 0 | 4.3 | 13.9 | 0.00 | 0.00 | 0.00 | 52 | 1002.0 |
| 20260505162603 | 38 | 348 | 1.7 | 5.2 | 0.00 | 0.00 | 0.00 | 53 | 1002.0 |
| 20260505162104 | 38 | 0 | 1.7 | 5.2 | 0.00 | 0.00 | 0.00 | 57 | 1001.9 |
| 20260505161604 | 38 | 354 | 2.6 | 10.4 | 0.00 | 0.00 | 0.00 | 57 | 1001.9 |
| 20260505161104 | 39 | 301 | 1.7 | 5.2 | 0.00 | 0.00 | 0.00 | 55 | 1001.9 |
| 20260505160604 | 39 | 277 | 2.6 | 7.0 | 0.00 | 0.00 | 0.00 | 57 | 1001.9 |
| 20260505160104 | 39 | 345 | 1.7 | 6.1 | 0.00 | 0.00 | 0.00 | 60 | 1001.9 |
| 20260505153104 | 39 | 292 | 1.7 | 10.4 | 0.00 | 0.00 | 0.00 | 51 | 1001.7 |
| 20260505152604 | 39 | 358 | 1.7 | 2.6 | 0.00 | 0.00 | 0.00 | 54 | 1001.7 |
| 20260505152103 | 39 | 0 | 2.6 | 7.0 | 0.00 | 0.00 | 0.00 | 56 | 1001.6 |
| 20260505151604 | 39 | 0 | 2.6 | 10.4 | 0.00 | 0.00 | 0.00 | 53 | 1001.7 |
| 20260505151104 | 39 | 0 | 5.2 | 10.4 | 0.00 | 0.00 | 0.00 | 53 | 1001.7 |
| 20260505150604 | 40 | 344 | 1.7 | 5.2 | 0.00 | 0.00 | 0.00 | 53 | 1001.6 |
| 20260505150104 | 40 | 319 | 2.6 | 5.2 | 0.00 | 0.00 | 0.00 | 51 | 1001.6 |
| 20260505140604 | 38 | 0 | 1.7 | 2.6 | 0.00 | 0.00 | 0.00 | 57 | 1001.2 |
| 20260505140104 | 38 | 265 | 0.9 | 4.3 | 0.00 | 0.00 | 0.00 | 58 | 1001.2 |
| 20260505130104 | 42 | 282 | 3.5 | 10.4 | 0.00 | 0.00 | 0.00 | 45 | 1001.0 |
| 20260505124604 | 39 | 0 | 2.6 | 10.4 | 0.00 | 0.00 | 0.00 | 51 | 1001.0 |
| 20260505124104 | 39 | 266 | 2.6 | 10.4 | 0.00 | 0.00 | 0.00 | 52 | 1001.0 |
| 20260505123603 | 38 | 347 | 1.7 | 6.1 | 0.00 | 0.00 | 0.00 | 53 | 1000.9 |
| 20260505123104 | 38 | 0 | 2.6 | 4.3 | 0.00 | 0.00 | 0.00 | 54 | 1000.9 |
| 20260505122604 | 38 | 0 | 1.7 | 4.3 | 0.00 | 0.00 | 0.00 | 53 | 1000.9 |
| 20260505122104 | 38 | 280 | 1.7 | 5.2 | 0.00 | 0.00 | 0.00 | 57 | 1000.8 |
| 20260505121603 | 39 | 302 | 0.9 | 6.1 | 0.00 | 0.00 | 0.00 | 60 | 1000.7 |
| 20260505121104 | 38 | 306 | 1.7 | 4.3 | 0.00 | 0.00 | 0.00 | 59 | 1000.7 |
| 20260505120603 | 39 | 0 | 2.6 | 4.3 | 0.00 | 0.00 | 0.00 | 58 | 1000.7 |
| 20260505120103 | 40 | 338 | 3.5 | 8.7 | 0.00 | 0.00 | 0.00 | 56 | 1000.6 |
| 20260505115604 | 40 | 341 | 1.7 | 7.0 | 0.00 | 0.00 | 0.00 | 49 | 1000.6 |
| 20260505115104 | 40 | 270 | 5.2 | 13.9 | 0.00 | 0.00 | 0.00 | 47 | 1000.5 |
| 20260505114603 | 41 | 339 | 2.6 | 8.7 | 0.00 | 0.00 | 0.00 | 47 | 1000.5 |
| 20260505114104 | 43 | 269 | 1.7 | 6.1 | 0.00 | 0.00 | 0.00 | 45 | 1000.4 |
| 20260505113603 | 44 | 281 | 6.1 | 12.2 | 0.00 | 0.00 | 0.00 | 44 | 1000.4 |
| 20260505113103 | 42 | 273 | 5.2 | 13.0 | 0.00 | 0.00 | 0.00 | 50 | 1000.3 |
| 20260505112604 | 40 | 297 | 1.7 | 10.4 | 0.00 | 0.00 | 0.00 | 52 | 1000.3 |
| 20260505112104 | 39 | 0 | 0.9 | 8.7 | 0.00 | 0.00 | 0.00 | 51 | 1000.4 |
| 20260505111604 | 40 | 0 | 1.7 | 7.8 | 0.00 | 0.00 | 0.00 | 54 | 1000.3 |
| 20260505111103 | 41 | 281 | 2.6 | 4.3 | 0.00 | 0.00 | 0.00 | 49 | 1000.2 |
| 20260505110603 | 42 | 326 | 1.7 | 5.2 | 0.00 | 0.00 | 0.00 | 49 | 1000.2 |
| 20260505102104 | 39 | 290 | 0.9 | 6.1 | 0.00 | 0.00 | 0.00 | 53 | 1000.0 |
| 20260505101604 | 39 | 286 | 1.7 | 6.1 | 0.00 | 0.00 | 0.00 | 52 | 999.9 |
| 20260505101104 | 39 | 273 | 1.7 | 7.0 | 0.00 | 0.00 | 0.00 | 51 | 999.9 |
| 20260505100604 | 40 | 0 | 1.7 | 10.4 | 0.00 | 0.00 | 0.00 | 51 | 999.8 |
| 20260505100104 | 40 | 353 | 2.6 | 8.7 | 0.00 | 0.00 | 0.00 | 52 | 999.8 |
| 20260505095604 | 40 | 341 | 2.6 | 7.8 | 0.00 | 0.00 | 0.00 | 50 | 999.7 |
| 20260505095103 | 40 | 0 | 1.7 | 7.0 | 0.00 | 0.00 | 0.00 | 51 | 999.7 |
| 20260505094603 | 40 | 292 | 2.6 | 7.0 | 0.00 | 0.00 | 0.00 | 51 | 999.8 |
| 20260505094104 | 40 | 274 | 2.6 | 5.2 | 0.00 | 0.00 | 0.00 | 50 | 999.8 |
| 20260505093604 | 41 | 293 | 2.6 | 10.4 | 0.00 | 0.00 | 0.00 | 51 | 999.8 |
| 20260505093103 | 41 | 296 | 1.7 | 4.3 | 0.00 | 0.00 | 0.00 | 52 | 999.7 |
| 20260505092603 | 40 | 283 | 2.6 | 7.8 | 0.00 | 0.00 | 0.00 | 52 | 999.7 |
| 20260505092104 | 40 | 316 | 4.3 | 7.0 | 0.00 | 0.00 | 0.00 | 51 | 999.6 |
| 20260505091604 | 40 | 310 | 2.6 | 5.2 | 0.00 | 0.00 | 0.00 | 52 | 999.6 |
| 20260505091103 | 40 | 311 | 0.9 | 5.2 | 0.00 | 0.00 | 0.00 | 54 | 999.6 |
| 20260505090603 | 40 | 333 | 1.7 | 4.3 | 0.00 | 0.00 | 0.00 | 52 | 999.6 |
| 20260505085604 | 40 | 351 | 2.6 | 7.8 | 0.00 | 0.00 | 0.00 | 53 | 999.6 |
| 20260505085103 | 40 | 322 | 1.7 | 7.0 | 0.00 | 0.00 | 0.00 | 54 | 999.6 |
| 20260505084603 | 41 | 304 | 2.6 | 6.1 | 0.00 | 0.00 | 0.00 | 51 | 999.4 |
| 20260505084104 | 41 | 294 | 2.6 | 6.1 | 0.00 | 0.00 | 0.00 | 53 | 999.4 |
| 20260505083604 | 40 | 298 | 2.6 | 6.1 | 0.00 | 0.00 | 0.00 | 52 | 999.4 |
| 20260505083104 | 41 | 330 | 1.7 | 6.1 | 0.00 | 0.00 | 0.00 | 52 | 999.2 |
| 20260505082603 | 40 | 299 | 1.7 | 6.1 | 0.00 | 0.00 | 0.00 | 54 | 999.2 |
| 20260505082104 | 40 | 291 | 1.7 | 5.2 | 0.00 | 0.00 | 0.00 | 54 | 999.2 |
| 20260505081604 | 40 | 314 | 1.7 | 5.2 | 0.00 | 0.00 | 0.00 | 54 | 999.2 |
| 20260505081103 | 40 | 303 | 3.5 | 7.8 | 0.00 | 0.00 | 0.00 | 54 | 999.1 |
| 20260505080604 | 40 | 314 | 1.7 | 7.8 | 0.00 | 0.00 | 0.00 | 55 | 999.2 |
| 20260505080104 | 40 | 273 | 2.6 | 13.9 | 0.00 | 0.00 | 0.00 | 56 | 999.1 |
| 20260505075604 | 39 | 292 | 1.7 | 5.2 | 0.00 | 0.00 | 0.00 | 58 | 999.1 |
| 20260505075104 | 39 | 287 | 2.6 | 8.7 | 0.00 | 0.00 | 0.00 | 57 | 999.1 |
| 20260505074603 | 39 | 295 | 2.6 | 5.2 | 0.00 | 0.00 | 0.00 | 58 | 999.1 |
| 20260505074104 | 39 | 314 | 1.7 | 6.1 | 0.00 | 0.00 | 0.00 | 58 | 999.1 |
| 20260505073604 | 38 | 274 | 1.7 | 4.3 | 0.00 | 0.00 | 0.00 | 59 | 999.1 |
| 20260505073104 | 39 | 305 | 2.6 | 11.3 | 0.00 | 0.00 | 0.00 | 57 | 999.1 |
| 20260505072604 | 39 | 288 | 1.7 | 6.1 | 0.00 | 0.00 | 0.00 | 57 | 999.1 |
| 20260505072104 | 38 | 266 | 2.6 | 5.2 | 0.00 | 0.00 | 0.00 | 57 | 999.0 |
| 20260505071603 | 38 | 318 | 1.7 | 5.2 | 0.00 | 0.00 | 0.00 | 56 | 999.0 |
| 20260505071103 | 39 | 296 | 2.6 | 7.8 | 0.00 | 0.00 | 0.00 | 56 | 999.0 |
| 20260505070604 | 38 | 271 | 1.7 | 7.0 | 0.00 | 0.00 | 0.00 | 58 | 998.9 |